contact:dominique.lefevre@mio.osupytheas.fr, maurice.libes@osupytheas.fr, didier.mallarino@osupytheas.fr
Project:EMSO http://www.emso-fr.org/EMSO-France
Depth: 2436.0 m
Title:EMSO Ligure Ouest : Data MII capteur MICROCAT
DateTime_Computer,Latitude,Longitude,Temperature,Conductivity,Pressure,DateTime_Instrument
DateTime_Computer,Latitude,Longitude,degC,S m-1,dbar,DateTime_Instrument
2021-08-20T00:02:12Z,42.805,6.029,13.2993,4.60016,2470.31,2021-8-20T02:03:31Z
2021-08-20T00:05:15Z,42.805,6.029,13.2998,4.60014,2470.334,2021-8-20T02:06:34Z
2021-08-20T00:08:19Z,42.805,6.029,13.2994,4.60016,2470.31,2021-8-20T02:09:37Z
2021-08-20T00:11:22Z,42.805,6.029,13.2986,4.60016,2470.334,2021-8-20T02:12:41Z
2021-08-20T00:14:25Z,42.805,6.029,13.2992,4.60019,2470.297,2021-8-20T02:15:44Z
2021-08-20T00:17:28Z,42.805,6.029,13.2990,4.60022,2470.273,2021-8-20T02:18:47Z
2021-08-20T00:20:31Z,42.805,6.029,13.2995,4.60013,2470.287,2021-8-20T02:21:50Z
2021-08-20T00:23:34Z,42.805,6.029,13.2996,4.60014,2470.31,2021-8-20T02:24:53Z
2021-08-20T00:26:37Z,42.805,6.029,13.2998,4.60009,2470.31,2021-8-20T02:27:56Z
2021-08-20T00:29:40Z,42.805,6.029,13.2998,4.60017,2470.297,2021-8-20T02:30:59Z
2021-08-20T00:32:44Z,42.805,6.029,13.2994,4.60016,2470.334,2021-8-20T02:34:02Z
2021-08-20T00:35:47Z,42.805,6.029,13.3003,4.60039,2470.31,2021-8-20T02:37:06Z
2021-08-20T00:38:50Z,42.805,6.029,13.2993,4.60016,2470.287,2021-8-20T02:40:09Z
2021-08-20T00:41:53Z,42.805,6.029,13.2990,4.60019,2470.31,2021-8-20T02:43:12Z
2021-08-20T00:44:56Z,42.805,6.029,13.2998,4.60017,2470.287,2021-8-20T02:46:15Z
2021-08-20T00:47:59Z,42.805,6.029,13.2993,4.60015,2470.297,2021-8-20T02:49:18Z
2021-08-20T00:51:02Z,42.805,6.029,13.2989,4.60034,2470.334,2021-8-20T02:52:21Z
2021-08-20T00:54:05Z,42.805,6.029,13.2996,4.60014,2470.287,2021-8-20T02:55:24Z
2021-08-20T00:57:09Z,42.805,6.029,13.3000,4.60021,2470.297,2021-8-20T02:58:27Z
2021-08-20T01:00:12Z,42.805,6.029,13.2993,4.60019,2470.32,2021-8-20T03:01:31Z
2021-08-20T01:03:15Z,42.805,6.029,13.3007,4.60029,2470.31,2021-8-20T03:04:34Z
2021-08-20T01:06:18Z,42.805,6.029,13.2996,4.60044,2470.297,2021-8-20T03:07:37Z
2021-08-20T01:09:21Z,42.805,6.029,13.2993,4.60031,2470.32,2021-8-20T03:10:40Z
2021-08-20T01:12:24Z,42.805,6.029,13.2996,4.60021,2470.31,2021-8-20T03:13:43Z
2021-08-20T01:15:27Z,42.805,6.029,13.3001,4.60046,2470.264,2021-8-20T03:16:46Z
2021-08-20T01:18:30Z,42.805,6.029,13.2997,4.60027,2470.31,2021-8-20T03:19:49Z
2021-08-20T01:21:34Z,42.805,6.029,13.3010,4.60044,2470.334,2021-8-20T03:22:52Z
2021-08-20T01:24:37Z,42.805,6.029,13.2999,4.60033,2470.31,2021-8-20T03:25:56Z
2021-08-20T01:27:40Z,42.805,6.029,13.3011,4.60037,2470.32,2021-8-20T03:28:59Z
2021-08-20T01:30:43Z,42.805,6.029,13.3011,4.60049,2470.273,2021-8-20T03:32:02Z
2021-08-20T01:33:46Z,42.805,6.029,13.2996,4.60039,2470.32,2021-8-20T03:35:05Z
2021-08-20T01:36:49Z,42.805,6.029,13.3002,4.60050,2470.31,2021-8-20T03:38:08Z
2021-08-20T01:39:52Z,42.805,6.029,13.3009,4.60052,2470.287,2021-8-20T03:41:11Z
2021-08-20T01:42:55Z,42.805,6.029,13.3012,4.60043,2470.31,2021-8-20T03:44:14Z
2021-08-20T01:45:58Z,42.805,6.029,13.3014,4.60039,2470.31,2021-8-20T03:47:17Z
2021-08-20T01:49:02Z,42.805,6.029,13.3014,4.60066,2470.31,2021-8-20T03:50:20Z
2021-08-20T01:52:05Z,42.805,6.029,13.3017,4.60058,2470.32,2021-8-20T03:53:24Z
2021-08-20T01:55:08Z,42.805,6.029,13.3009,4.60054,2470.32,2021-8-20T03:56:27Z
2021-08-20T01:58:11Z,42.805,6.029,13.3019,4.60057,2470.343,2021-8-20T03:59:30Z
2021-08-20T02:01:14Z,42.805,6.029,13.3026,4.60071,2470.297,2021-8-20T04:02:33Z
2021-08-20T02:04:17Z,42.805,6.029,13.3018,4.60078,2470.32,2021-8-20T04:05:36Z
2021-08-20T02:07:20Z,42.805,6.029,13.3024,4.60074,2470.343,2021-8-20T04:08:39Z
2021-08-20T02:10:23Z,42.805,6.029,13.3000,4.60053,2470.287,2021-8-20T04:11:42Z
2021-08-20T02:13:27Z,42.805,6.029,13.3011,4.60066,2470.32,2021-8-20T04:14:45Z
2021-08-20T02:16:30Z,42.805,6.029,13.3003,4.60066,2470.31,2021-8-20T04:17:49Z
2021-08-20T02:19:33Z,42.805,6.029,13.3002,4.60067,2470.343,2021-8-20T04:20:52Z
2021-08-20T02:22:36Z,42.805,6.029,13.3018,4.60046,2470.334,2021-8-20T04:23:55Z
2021-08-20T02:25:39Z,42.805,6.029,13.3011,4.60040,2470.334,2021-8-20T04:26:58Z
2021-08-20T02:28:42Z,42.805,6.029,13.3005,4.60059,2470.31,2021-8-20T04:30:01Z
2021-08-20T02:31:45Z,42.805,6.029,13.3021,4.60043,2470.334,2021-8-20T04:33:04Z
2021-08-20T02:34:48Z,42.805,6.029,13.3026,4.60065,2470.297,2021-8-20T04:36:07Z
2021-08-20T02:37:52Z,42.805,6.029,13.3003,4.60059,2470.334,2021-8-20T04:39:10Z
2021-08-20T02:40:55Z,42.805,6.029,13.3027,4.60057,2470.357,2021-8-20T04:42:14Z
2021-08-20T02:43:58Z,42.805,6.029,13.3022,4.60071,2470.32,2021-8-20T04:45:17Z
2021-08-20T02:47:01Z,42.805,6.029,13.3011,4.60069,2470.357,2021-8-20T04:48:20Z
2021-08-20T02:50:04Z,42.805,6.029,13.3004,4.60057,2470.32,2021-8-20T04:51:23Z
2021-08-20T02:53:07Z,42.805,6.029,13.3025,4.60069,2470.343,2021-8-20T04:54:26Z
2021-08-20T02:56:10Z,42.805,6.029,13.3024,4.60063,2470.297,2021-8-20T04:57:29Z
2021-08-20T02:59:13Z,42.805,6.029,13.3026,4.60067,2470.366,2021-8-20T05:00:32Z
2021-08-20T03:02:17Z,42.805,6.029,13.3011,4.60059,2470.366,2021-8-20T05:03:35Z
2021-08-20T03:05:20Z,42.805,6.029,13.3029,4.60075,2470.39,2021-8-20T05:06:39Z
2021-08-20T03:08:23Z,42.805,6.029,13.3024,4.60060,2470.334,2021-8-20T05:09:42Z
2021-08-20T03:11:26Z,42.805,6.029,13.3036,4.60072,2470.357,2021-8-20T05:12:45Z
2021-08-20T03:14:29Z,42.805,6.029,13.3010,4.60069,2470.343,2021-8-20T05:15:48Z
2021-08-20T03:17:32Z,42.805,6.029,13.3016,4.60064,2470.357,2021-8-20T05:18:51Z
2021-08-20T03:20:35Z,42.805,6.029,13.3029,4.60054,2470.343,2021-8-20T05:21:54Z
2021-08-20T03:23:38Z,42.805,6.029,13.3030,4.60054,2470.343,2021-8-20T05:24:57Z
2021-08-20T03:26:42Z,42.805,6.029,13.3028,4.60073,2470.32,2021-8-20T05:28:00Z
2021-08-20T03:29:45Z,42.805,6.029,13.3026,4.60077,2470.38,2021-8-20T05:31:04Z
2021-08-20T03:32:48Z,42.805,6.029,13.3017,4.60043,2470.334,2021-8-20T05:34:07Z
2021-08-20T03:35:51Z,42.805,6.029,13.3006,4.60045,2470.343,2021-8-20T05:37:10Z
2021-08-20T03:38:54Z,42.805,6.029,13.3006,4.60033,2470.32,2021-8-20T05:40:13Z
2021-08-20T03:41:57Z,42.805,6.029,13.3006,4.60048,2470.366,2021-8-20T05:43:16Z
2021-08-20T03:45:00Z,42.805,6.029,13.3019,4.60060,2470.366,2021-8-20T05:46:19Z
2021-08-20T03:48:03Z,42.805,6.029,13.3025,4.60057,2470.357,2021-8-20T05:49:22Z
2021-08-20T03:51:07Z,42.805,6.029,13.3024,4.60071,2470.38,2021-8-20T05:52:25Z
2021-08-20T03:54:10Z,42.805,6.029,13.3024,4.60054,2470.38,2021-8-20T05:55:29Z
2021-08-20T03:57:13Z,42.805,6.029,13.2998,4.60060,2470.343,2021-8-20T05:58:32Z
2021-08-20T04:00:16Z,42.805,6.029,13.3022,4.60060,2470.343,2021-8-20T06:01:35Z
2021-08-20T04:03:19Z,42.805,6.029,13.3011,4.60056,2470.343,2021-8-20T06:04:38Z
2021-08-20T04:06:22Z,42.805,6.029,13.3022,4.60034,2470.343,2021-8-20T06:07:41Z
2021-08-20T04:09:25Z,42.805,6.029,13.2998,4.60053,2470.366,2021-8-20T06:10:44Z
2021-08-20T04:12:28Z,42.805,6.029,13.3003,4.60057,2470.38,2021-8-20T06:13:47Z
2021-08-20T04:15:32Z,42.805,6.029,13.3004,4.60042,2470.38,2021-8-20T06:16:50Z
2021-08-20T04:18:35Z,42.805,6.029,13.3008,4.60033,2470.357,2021-8-20T06:19:54Z
2021-08-20T04:21:38Z,42.805,6.029,13.3007,4.60040,2470.366,2021-8-20T06:22:57Z
2021-08-20T04:24:41Z,42.805,6.029,13.3003,4.60031,2470.38,2021-8-20T06:26:00Z
2021-08-20T04:27:44Z,42.805,6.029,13.3006,4.60046,2470.357,2021-8-20T06:29:03Z
2021-08-20T04:30:47Z,42.805,6.029,13.3006,4.60045,2470.38,2021-8-20T06:32:06Z
2021-08-20T04:33:50Z,42.805,6.029,13.3005,4.60028,2470.366,2021-8-20T06:35:09Z
2021-08-20T04:36:53Z,42.805,6.029,13.3006,4.60025,2470.366,2021-8-20T06:38:12Z
2021-08-20T04:39:56Z,42.805,6.029,13.2997,4.60019,2470.366,2021-8-20T06:41:15Z
2021-08-20T04:43:00Z,42.805,6.029,13.3004,4.60026,2470.39,2021-8-20T06:44:19Z
2021-08-20T04:46:03Z,42.805,6.029,13.3033,4.60050,2470.366,2021-8-20T06:47:22Z
2021-08-20T04:49:06Z,42.805,6.029,13.3015,4.60051,2470.366,2021-8-20T06:50:25Z
2021-08-20T04:52:09Z,42.805,6.029,13.3003,4.60029,2470.38,2021-8-20T06:53:28Z
2021-08-20T04:55:12Z,42.805,6.029,13.3002,4.60046,2470.366,2021-8-20T06:56:31Z
2021-08-20T04:58:15Z,42.805,6.029,13.3000,4.60039,2470.366,2021-8-20T06:59:34Z
2021-08-20T05:01:18Z,42.805,6.029,13.3001,4.60026,2470.366,2021-8-20T07:02:37Z
2021-08-20T05:04:21Z,42.805,6.029,13.3006,4.60025,2470.404,2021-8-20T07:05:40Z
2021-08-20T05:07:25Z,42.805,6.029,13.3007,4.60042,2470.413,2021-8-20T07:08:43Z
2021-08-20T05:10:28Z,42.805,6.029,13.3008,4.60029,2470.38,2021-8-20T07:11:47Z
2021-08-20T05:13:31Z,42.805,6.029,13.3011,4.60061,2470.404,2021-8-20T07:14:50Z
2021-08-20T05:16:34Z,42.805,6.029,13.3004,4.60032,2470.404,2021-8-20T07:17:53Z
2021-08-20T05:19:37Z,42.805,6.029,13.3000,4.60048,2470.38,2021-8-20T07:20:56Z
2021-08-20T05:22:40Z,42.805,6.029,13.3009,4.60053,2470.39,2021-8-20T07:23:59Z
2021-08-20T05:25:43Z,42.805,6.029,13.3006,4.60043,2470.39,2021-8-20T07:27:02Z
2021-08-20T05:28:46Z,42.805,6.029,13.3018,4.60046,2470.39,2021-8-20T07:30:05Z
2021-08-20T05:31:50Z,42.805,6.029,13.3006,4.60057,2470.404,2021-8-20T07:33:08Z
2021-08-20T05:34:53Z,42.805,6.029,13.3005,4.60021,2470.343,2021-8-20T07:36:12Z
2021-08-20T05:37:56Z,42.805,6.029,13.3000,4.60044,2470.39,2021-8-20T07:39:15Z
2021-08-20T05:40:59Z,42.805,6.029,13.3002,4.60031,2470.366,2021-8-20T07:42:18Z
2021-08-20T05:44:02Z,42.805,6.029,13.3003,4.60027,2470.39,2021-8-20T07:45:21Z
2021-08-20T05:47:05Z,42.805,6.029,13.3002,4.60026,2470.366,2021-8-20T07:48:24Z
2021-08-20T05:50:08Z,42.805,6.029,13.3004,4.60037,2470.404,2021-8-20T07:51:27Z
2021-08-20T05:53:11Z,42.805,6.029,13.3010,4.60055,2470.357,2021-8-20T07:54:30Z
2021-08-20T05:56:15Z,42.805,6.029,13.3017,4.60052,2470.366,2021-8-20T07:57:33Z
2021-08-20T05:59:18Z,42.805,6.029,13.3003,4.60031,2470.39,2021-8-20T08:00:37Z
2021-08-20T06:02:21Z,42.805,6.029,13.2998,4.60026,2470.39,2021-8-20T08:03:40Z
2021-08-20T06:05:24Z,42.805,6.029,13.3006,4.60036,2470.343,2021-8-20T08:06:43Z
2021-08-20T06:08:27Z,42.805,6.029,13.3004,4.60054,2470.38,2021-8-20T08:09:46Z
2021-08-20T06:11:30Z,42.805,6.029,13.3014,4.60062,2470.366,2021-8-20T08:12:49Z
2021-08-20T06:14:33Z,42.805,6.029,13.3004,4.60042,2470.39,2021-8-20T08:15:52Z
2021-08-20T06:17:36Z,42.805,6.029,13.3006,4.60030,2470.38,2021-8-20T08:18:55Z
2021-08-20T06:20:39Z,42.805,6.029,13.3006,4.60044,2470.38,2021-8-20T08:21:58Z
2021-08-20T06:23:43Z,42.805,6.029,13.3003,4.60031,2470.38,2021-8-20T08:25:02Z
2021-08-20T06:26:46Z,42.805,6.029,13.3010,4.60044,2470.38,2021-8-20T08:28:05Z
2021-08-20T06:29:49Z,42.805,6.029,13.3005,4.60045,2470.404,2021-8-20T08:31:08Z
2021-08-20T06:32:52Z,42.805,6.029,13.3002,4.60042,2470.366,2021-8-20T08:34:11Z
2021-08-20T06:35:55Z,42.805,6.029,13.3008,4.60042,2470.343,2021-8-20T08:37:14Z
2021-08-20T06:38:58Z,42.805,6.029,13.3004,4.60041,2470.366,2021-8-20T08:40:17Z
2021-08-20T06:42:01Z,42.805,6.029,13.3005,4.60033,2470.343,2021-8-20T08:43:20Z
2021-08-20T06:45:04Z,42.805,6.029,13.3002,4.60031,2470.366,2021-8-20T08:46:23Z
2021-08-20T06:48:08Z,42.805,6.029,13.3000,4.60036,2470.343,2021-8-20T08:49:26Z
2021-08-20T06:51:11Z,42.805,6.029,13.2998,4.60021,2470.357,2021-8-20T08:52:30Z
2021-08-20T06:54:14Z,42.805,6.029,13.3000,4.60027,2470.404,2021-8-20T08:55:33Z
2021-08-20T06:57:17Z,42.805,6.029,13.3005,4.60039,2470.38,2021-8-20T08:58:36Z
2021-08-20T07:00:20Z,42.805,6.029,13.2998,4.60043,2470.39,2021-8-20T09:01:39Z
2021-08-20T07:03:23Z,42.805,6.029,13.2997,4.60027,2470.357,2021-8-20T09:04:42Z
2021-08-20T07:06:26Z,42.805,6.029,13.3010,4.60033,2470.357,2021-8-20T09:07:45Z
2021-08-20T07:09:29Z,42.805,6.029,13.3006,4.60045,2470.39,2021-8-20T09:10:48Z
2021-08-20T07:12:33Z,42.805,6.029,13.3008,4.60036,2470.357,2021-8-20T09:13:51Z
2021-08-20T07:15:36Z,42.805,6.029,13.3019,4.60036,2470.39,2021-8-20T09:16:55Z
2021-08-20T07:18:39Z,42.805,6.029,13.3029,4.60060,2470.357,2021-8-20T09:19:58Z
2021-08-20T07:21:42Z,42.805,6.029,13.3003,4.60039,2470.38,2021-8-20T09:23:01Z
2021-08-20T07:24:45Z,42.805,6.029,13.3019,4.60064,2470.343,2021-8-20T09:26:04Z
2021-08-20T07:27:48Z,42.805,6.029,13.3002,4.60058,2470.38,2021-8-20T09:29:07Z
2021-08-20T07:30:51Z,42.805,6.029,13.2998,4.60036,2470.366,2021-8-20T09:32:10Z
2021-08-20T07:33:54Z,42.805,6.029,13.2997,4.60041,2470.357,2021-8-20T09:35:13Z
2021-08-20T07:36:58Z,42.805,6.029,13.2999,4.60033,2470.39,2021-8-20T09:38:16Z
2021-08-20T07:40:01Z,42.805,6.029,13.2998,4.60034,2470.343,2021-8-20T09:41:20Z
2021-08-20T07:43:04Z,42.805,6.029,13.3012,4.60022,2470.357,2021-8-20T09:44:23Z
2021-08-20T07:46:07Z,42.805,6.029,13.3013,4.60018,2470.343,2021-8-20T09:47:26Z
2021-08-20T07:49:10Z,42.805,6.029,13.3015,4.60056,2470.343,2021-8-20T09:50:29Z
2021-08-20T07:52:13Z,42.805,6.029,13.3003,4.60029,2470.357,2021-8-20T09:53:32Z
2021-08-20T07:55:16Z,42.805,6.029,13.2998,4.60045,2470.357,2021-8-20T09:56:35Z
2021-08-20T07:58:19Z,42.805,6.029,13.3000,4.60037,2470.343,2021-8-20T09:59:38Z
2021-08-20T08:01:23Z,42.805,6.029,13.3000,4.60035,2470.366,2021-8-20T10:02:41Z
2021-08-20T08:04:26Z,42.805,6.029,13.2994,4.60031,2470.357,2021-8-20T10:05:45Z
2021-08-20T08:07:29Z,42.805,6.029,13.2998,4.60022,2470.357,2021-8-20T10:08:48Z
2021-08-20T08:10:32Z,42.805,6.029,13.3004,4.60044,2470.33,2021-8-20T10:11:51Z
2021-08-20T08:13:35Z,42.805,6.029,13.3012,4.60059,2470.343,2021-8-20T10:14:54Z
2021-08-20T08:16:38Z,42.805,6.029,13.3009,4.60063,2470.32,2021-8-20T10:17:57Z
2021-08-20T08:19:41Z,42.805,6.029,13.3001,4.60033,2470.334,2021-8-20T10:21:00Z
2021-08-20T08:22:44Z,42.805,6.029,13.3010,4.60034,2470.357,2021-8-20T10:24:03Z
2021-08-20T08:25:48Z,42.805,6.029,13.3016,4.60042,2470.297,2021-8-20T10:27:06Z
2021-08-20T08:28:51Z,42.805,6.029,13.2998,4.60033,2470.32,2021-8-20T10:30:10Z
2021-08-20T08:31:54Z,42.805,6.029,13.3004,4.60031,2470.357,2021-8-20T10:33:13Z
2021-08-20T08:34:57Z,42.805,6.029,13.2998,4.60026,2470.334,2021-8-20T10:36:16Z
2021-08-20T08:38:00Z,42.805,6.029,13.3004,4.60059,2470.32,2021-8-20T10:39:19Z
2021-08-20T08:41:03Z,42.805,6.029,13.3018,4.60052,2470.31,2021-8-20T10:42:22Z
2021-08-20T08:44:06Z,42.805,6.029,13.2998,4.60055,2470.343,2021-8-20T10:45:25Z
2021-08-20T08:47:09Z,42.805,6.029,13.3015,4.60052,2470.297,2021-8-20T10:48:28Z
2021-08-20T08:50:13Z,42.805,6.029,13.3022,4.60048,2470.31,2021-8-20T10:51:31Z
2021-08-20T08:53:16Z,42.805,6.029,13.3011,4.60047,2470.297,2021-8-20T10:54:35Z
2021-08-20T08:56:19Z,42.805,6.029,13.3008,4.60051,2470.357,2021-8-20T10:57:38Z
2021-08-20T08:59:22Z,42.805,6.029,13.3021,4.60039,2470.334,2021-8-20T11:00:41Z
2021-08-20T09:02:25Z,42.805,6.029,13.3015,4.60055,2470.343,2021-8-20T11:03:44Z
2021-08-20T09:05:28Z,42.805,6.029,13.3007,4.60044,2470.31,2021-8-20T11:06:47Z
2021-08-20T09:08:31Z,42.805,6.029,13.3005,4.60036,2470.31,2021-8-20T11:09:50Z
2021-08-20T09:11:34Z,42.805,6.029,13.3004,4.60037,2470.297,2021-8-20T11:12:53Z
2021-08-20T09:14:38Z,42.805,6.029,13.2998,4.60035,2470.32,2021-8-20T11:15:56Z
2021-08-20T09:17:41Z,42.805,6.029,13.3007,4.60029,2470.297,2021-8-20T11:19:00Z
2021-08-20T09:20:44Z,42.805,6.029,13.3003,4.60032,2470.31,2021-8-20T11:22:03Z
2021-08-20T09:23:47Z,42.805,6.029,13.3000,4.60065,2470.357,2021-8-20T11:25:06Z
2021-08-20T09:26:50Z,42.805,6.029,13.3009,4.60056,2470.297,2021-8-20T11:28:09Z
2021-08-20T09:29:53Z,42.805,6.029,13.3004,4.60042,2470.31,2021-8-20T11:31:12Z
2021-08-20T09:32:56Z,42.805,6.029,13.3006,4.60074,2470.273,2021-8-20T11:34:15Z
2021-08-20T09:35:59Z,42.805,6.029,13.3010,4.60051,2470.273,2021-8-20T11:37:18Z
2021-08-20T09:39:03Z,42.805,6.029,13.3003,4.60063,2470.25,2021-8-20T11:40:21Z
2021-08-20T09:42:06Z,42.805,6.029,13.3016,4.60043,2470.25,2021-8-20T11:43:25Z
2021-08-20T09:45:09Z,42.805,6.029,13.3002,4.60033,2470.273,2021-8-20T11:46:28Z
2021-08-20T09:48:12Z,42.805,6.029,13.3012,4.60059,2470.297,2021-8-20T11:49:31Z
2021-08-20T09:51:15Z,42.805,6.029,13.3010,4.60059,2470.287,2021-8-20T11:52:34Z
2021-08-20T09:54:18Z,42.805,6.029,13.2996,4.60039,2470.273,2021-8-20T11:55:37Z
2021-08-20T09:57:21Z,42.805,6.029,13.3002,4.60026,2470.31,2021-8-20T11:58:40Z
2021-08-20T10:00:25Z,42.805,6.029,13.3000,4.60029,2470.287,2021-8-20T12:01:43Z
2021-08-20T10:03:28Z,42.805,6.029,13.3001,4.60027,2470.297,2021-8-20T12:04:47Z
2021-08-20T10:06:31Z,42.805,6.029,13.3000,4.60022,2470.25,2021-8-20T12:07:50Z
2021-08-20T10:09:34Z,42.805,6.029,13.3007,4.60062,2470.24,2021-8-20T12:10:53Z
2021-08-20T10:12:37Z,42.805,6.029,13.3012,4.60059,2470.273,2021-8-20T12:13:56Z
2021-08-20T10:15:40Z,42.805,6.029,13.3021,4.60060,2470.287,2021-8-20T12:16:59Z
2021-08-20T10:18:43Z,42.805,6.029,13.3020,4.60052,2470.264,2021-8-20T12:20:02Z
2021-08-20T10:21:46Z,42.805,6.029,13.3006,4.60049,2470.25,2021-8-20T12:23:05Z
2021-08-20T10:24:50Z,42.805,6.029,13.3010,4.60049,2470.227,2021-8-20T12:26:08Z
2021-08-20T10:27:53Z,42.805,6.029,13.3009,4.60047,2470.25,2021-8-20T12:29:12Z
2021-08-20T10:30:56Z,42.805,6.029,13.3023,4.60064,2470.227,2021-8-20T12:32:15Z
2021-08-20T10:33:59Z,42.805,6.029,13.3021,4.60058,2470.273,2021-8-20T12:35:18Z
2021-08-20T10:37:02Z,42.805,6.029,13.3023,4.60067,2470.273,2021-8-20T12:38:21Z
2021-08-20T10:40:05Z,42.805,6.029,13.3021,4.60066,2470.273,2021-8-20T12:41:24Z
2021-08-20T10:43:08Z,42.805,6.029,13.3018,4.60067,2470.24,2021-8-20T12:44:27Z
2021-08-20T10:46:11Z,42.805,6.029,13.3015,4.60050,2470.264,2021-8-20T12:47:30Z
2021-08-20T10:49:15Z,42.805,6.029,13.3034,4.60050,2470.25,2021-8-20T12:50:33Z
2021-08-20T10:52:18Z,42.805,6.029,13.3021,4.60058,2470.264,2021-8-20T12:53:37Z
2021-08-20T10:55:21Z,42.805,6.029,13.3023,4.60049,2470.25,2021-8-20T12:56:40Z
2021-08-20T10:58:24Z,42.805,6.029,13.3012,4.60057,2470.264,2021-8-20T12:59:43Z
2021-08-20T11:01:27Z,42.805,6.029,13.3008,4.60062,2470.227,2021-8-20T13:02:46Z
2021-08-20T11:04:30Z,42.805,6.029,13.3004,4.60069,2470.227,2021-8-20T13:05:49Z
2021-08-20T11:07:33Z,42.805,6.029,13.3011,4.60049,2470.227,2021-8-20T13:08:52Z
2021-08-20T11:10:36Z,42.805,6.029,13.3014,4.60062,2470.227,2021-8-20T13:11:55Z
2021-08-20T11:13:40Z,42.805,6.029,13.3017,4.60047,2470.227,2021-8-20T13:14:58Z
2021-08-20T11:16:43Z,42.805,6.029,13.2999,4.60054,2470.227,2021-8-20T13:18:02Z
2021-08-20T11:19:46Z,42.805,6.029,13.3012,4.60046,2470.227,2021-8-20T13:21:05Z
2021-08-20T11:22:49Z,42.805,6.029,13.3009,4.60039,2470.25,2021-8-20T13:24:08Z
2021-08-20T11:25:52Z,42.805,6.029,13.3024,4.60046,2470.25,2021-8-20T13:27:11Z
2021-08-20T11:28:55Z,42.805,6.029,13.3015,4.60046,2470.227,2021-8-20T13:30:14Z
2021-08-20T11:31:58Z,42.805,6.029,13.3019,4.60057,2470.264,2021-8-20T13:33:17Z
2021-08-20T11:35:01Z,42.805,6.029,13.3020,4.60066,2470.24,2021-8-20T13:36:20Z
2021-08-20T11:38:05Z,42.805,6.029,13.3011,4.60078,2470.24,2021-8-20T13:39:23Z
2021-08-20T11:41:08Z,42.805,6.029,13.3009,4.60043,2470.25,2021-8-20T13:42:27Z
2021-08-20T11:44:11Z,42.805,6.029,13.3010,4.60036,2470.24,2021-8-20T13:45:30Z
2021-08-20T11:47:14Z,42.805,6.029,13.3009,4.60044,2470.25,2021-8-20T13:48:33Z
2021-08-20T11:50:17Z,42.805,6.029,13.3006,4.60050,2470.217,2021-8-20T13:51:36Z
2021-08-20T11:53:20Z,42.805,6.029,13.2995,4.60057,2470.227,2021-8-20T13:54:39Z
2021-08-20T11:56:23Z,42.805,6.029,13.3012,4.60057,2470.264,2021-8-20T13:57:42Z
2021-08-20T11:59:26Z,42.805,6.029,13.3030,4.60063,2470.25,2021-8-20T14:00:45Z
2021-08-20T12:02:30Z,42.805,6.029,13.3042,4.60060,2470.25,2021-8-20T14:03:49Z
2021-08-20T12:05:33Z,42.805,6.029,13.3021,4.60070,2470.203,2021-8-20T14:06:52Z
2021-08-20T12:08:36Z,42.805,6.029,13.3006,4.60054,2470.25,2021-8-20T14:09:55Z
2021-08-20T12:11:39Z,42.805,6.029,13.3009,4.60032,2470.264,2021-8-20T14:12:58Z
2021-08-20T12:14:42Z,42.805,6.029,13.2998,4.60029,2470.25,2021-8-20T14:16:01Z
2021-08-20T12:17:45Z,42.805,6.029,13.3002,4.60029,2470.264,2021-8-20T14:19:04Z
2021-08-20T12:20:48Z,42.805,6.029,13.3021,4.60052,2470.273,2021-8-20T14:22:07Z
2021-08-20T12:23:51Z,42.805,6.029,13.3009,4.60031,2470.264,2021-8-20T14:25:10Z
2021-08-20T12:26:55Z,42.805,6.029,13.3002,4.60035,2470.227,2021-8-20T14:28:14Z
2021-08-20T12:29:58Z,42.805,6.029,13.3000,4.60039,2470.227,2021-8-20T14:31:17Z
2021-08-20T12:33:01Z,42.805,6.029,13.2993,4.60041,2470.203,2021-8-20T14:34:20Z
2021-08-20T12:36:04Z,42.805,6.029,13.3020,4.60046,2470.217,2021-8-20T14:37:23Z
2021-08-20T12:39:07Z,42.805,6.029,13.3017,4.60060,2470.264,2021-8-20T14:40:26Z
2021-08-20T12:42:10Z,42.805,6.029,13.3011,4.60046,2470.273,2021-8-20T14:43:29Z
2021-08-20T12:45:13Z,42.805,6.029,13.3016,4.60040,2470.203,2021-8-20T14:46:32Z
2021-08-20T12:48:17Z,42.805,6.029,13.3022,4.60062,2470.236,2021-8-20T14:49:35Z
2021-08-20T12:51:20Z,42.805,6.029,13.3034,4.60053,2470.24,2021-8-20T14:52:39Z
2021-08-20T12:54:23Z,42.805,6.029,13.3029,4.60076,2470.25,2021-8-20T14:55:42Z
2021-08-20T12:57:26Z,42.805,6.029,13.3024,4.60079,2470.273,2021-8-20T14:58:45Z
2021-08-20T13:00:29Z,42.805,6.029,13.3008,4.60072,2470.273,2021-8-20T15:01:48Z
2021-08-20T13:03:32Z,42.805,6.029,13.3016,4.60095,2470.25,2021-8-20T15:04:51Z
2021-08-20T13:06:35Z,42.805,6.029,13.3023,4.60056,2470.264,2021-8-20T15:07:54Z
2021-08-20T13:09:38Z,42.805,6.029,13.3027,4.60051,2470.25,2021-8-20T15:10:57Z
2021-08-20T13:12:42Z,42.805,6.029,13.3015,4.60089,2470.227,2021-8-20T15:14:00Z
2021-08-20T13:15:45Z,42.805,6.029,13.3036,4.60070,2470.25,2021-8-20T15:17:04Z
2021-08-20T13:18:48Z,42.805,6.029,13.3034,4.60068,2470.24,2021-8-20T15:20:07Z
2021-08-20T13:21:51Z,42.805,6.029,13.3026,4.60060,2470.287,2021-8-20T15:23:10Z
2021-08-20T13:24:54Z,42.805,6.029,13.3019,4.60072,2470.264,2021-8-20T15:26:13Z
2021-08-20T13:27:57Z,42.805,6.029,13.3030,4.60067,2470.287,2021-8-20T15:29:16Z
2021-08-20T13:31:00Z,42.805,6.029,13.3030,4.60050,2470.287,2021-8-20T15:32:19Z
2021-08-20T13:34:03Z,42.805,6.029,13.3034,4.60064,2470.273,2021-8-20T15:35:22Z
2021-08-20T13:37:07Z,42.805,6.029,13.3015,4.60072,2470.31,2021-8-20T15:38:25Z
2021-08-20T13:40:10Z,42.805,6.029,13.3004,4.60057,2470.287,2021-8-20T15:41:29Z
2021-08-20T13:43:13Z,42.805,6.029,13.3013,4.60057,2470.264,2021-8-20T15:44:32Z
2021-08-20T13:46:16Z,42.805,6.029,13.3013,4.60050,2470.297,2021-8-20T15:47:35Z
2021-08-20T13:49:19Z,42.805,6.029,13.3013,4.60032,2470.287,2021-8-20T15:50:38Z
2021-08-20T13:52:22Z,42.805,6.029,13.3021,4.60061,2470.297,2021-8-20T15:53:41Z
2021-08-20T13:55:25Z,42.805,6.029,13.3003,4.60059,2470.31,2021-8-20T15:56:44Z
2021-08-20T13:58:28Z,42.805,6.029,13.3001,4.60026,2470.273,2021-8-20T15:59:47Z
2021-08-20T14:01:32Z,42.805,6.029,13.2999,4.60039,2470.25,2021-8-20T16:02:50Z
2021-08-20T14:04:35Z,42.805,6.029,13.2993,4.60028,2470.31,2021-8-20T16:05:54Z
2021-08-20T14:07:38Z,42.805,6.029,13.3000,4.60026,2470.31,2021-8-20T16:08:57Z
2021-08-20T14:10:41Z,42.805,6.029,13.2996,4.60024,2470.32,2021-8-20T16:12:00Z
2021-08-20T14:13:44Z,42.805,6.029,13.3000,4.60036,2470.273,2021-8-20T16:15:03Z
2021-08-20T14:16:47Z,42.805,6.029,13.3011,4.60039,2470.31,2021-8-20T16:18:06Z
2021-08-20T14:19:50Z,42.805,6.029,13.3006,4.60050,2470.31,2021-8-20T16:21:09Z
2021-08-20T14:22:53Z,42.805,6.029,13.3016,4.60057,2470.287,2021-8-20T16:24:12Z
2021-08-20T14:25:57Z,42.805,6.029,13.3011,4.60047,2470.32,2021-8-20T16:27:15Z
2021-08-20T14:29:00Z,42.805,6.029,13.3003,4.60023,2470.297,2021-8-20T16:30:19Z
2021-08-20T14:32:03Z,42.805,6.029,13.2997,4.60026,2470.32,2021-8-20T16:33:22Z
2021-08-20T14:35:06Z,42.805,6.029,13.2997,4.60024,2470.32,2021-8-20T16:36:25Z
2021-08-20T14:38:09Z,42.805,6.029,13.3006,4.60062,2470.31,2021-8-20T16:39:28Z
2021-08-20T14:41:12Z,42.805,6.029,13.3029,4.60040,2470.273,2021-8-20T16:42:31Z
2021-08-20T14:44:15Z,42.805,6.029,13.3025,4.60050,2470.32,2021-8-20T16:45:34Z
2021-08-20T14:47:18Z,42.805,6.029,13.3029,4.60064,2470.31,2021-8-20T16:48:37Z
2021-08-20T14:50:22Z,42.805,6.029,13.3023,4.60070,2470.273,2021-8-20T16:51:41Z
2021-08-20T14:53:25Z,42.805,6.029,13.3010,4.60072,2470.343,2021-8-20T16:54:44Z
2021-08-20T14:56:28Z,42.805,6.029,13.2995,4.60047,2470.297,2021-8-20T16:57:47Z
2021-08-20T14:59:31Z,42.805,6.029,13.3004,4.60046,2470.343,2021-8-20T17:00:50Z
2021-08-20T15:02:34Z,42.805,6.029,13.3006,4.60052,2470.343,2021-8-20T17:03:53Z
2021-08-20T15:05:37Z,42.805,6.029,13.3012,4.60056,2470.343,2021-8-20T17:06:56Z
2021-08-20T15:08:40Z,42.805,6.029,13.3004,4.60059,2470.32,2021-8-20T17:09:59Z
2021-08-20T15:11:44Z,42.805,6.029,13.3015,4.60057,2470.38,2021-8-20T17:13:02Z
2021-08-20T15:14:47Z,42.805,6.029,13.3016,4.60072,2470.334,2021-8-20T17:16:06Z